Torna al catalogo

STARLINK-37783

AttivoComunicazioniSSO
NORAD 69438·PAYLOAD·🇺🇸 United States

Lanciato Jun 7, 2026 da Vandenberg Space Force Base

Loading…

Prossimi Passaggi (prossime 24 ore)

TLE

AggiornatoSource: CelesTrak SupGP

Epoca: Sep 14, 2026, 22:35 UTC

1 69438C 26126U   26257.94145833  .00070270  00000+0  21821-2 0  2574
2 69438  97.2847 119.2602 0002519  94.4819 238.8612 15.33389758    15

Traccia STARLINK-37783 in tempo reale con AllMySat

Download on the App Store